Miscellaneous Local Product
Issued by NWS North Platte, NE

Home | Current Version | Previous Version | Text Only | Print | Product List | Glossary On
Versions: 1 2 3 4 5 6 7 8 9 10 11 12 13 14 15 16 17 18 19 20 21 22 23 24 25 26 27 28 29 30 31 32 33 34 35 36 37 38 39 40 41 42 43 44 45 46 47 48 49 50
000
AXUS43 KLBF 250710
MISLBF


WESTERN AND NORTH CENTRAL NEBRASKA HOURLY WEATHER ROUNDUP
NATIONAL WEATHER SERVICE NORTH PLATTE NE
100 AM CST TUE NOV 25 2014

***STATIONS NOT REPORTING VARIABLES SUCH AS SKY/WEATHER OR
PRESSURE ARE PROVIDED BY THE NEBRASKA DEPARTMENT OF
ROADS...RAWS...AND APRS NETWORKS...AND ARE NOT UNDER
NATIONAL WEATHER SERVICE QUALITY CONTROL***

...OBSERVATIONS IN AND NEAR THE EASTERN PANHANDLE OF NEBRASKA...

CITY           SKY/WX    TMP DP  RH WIND       PRES   REMARKS
PINE RIDGE     CLEAR     23  19  85 W9        30.09S WCI  13
CHADRON        PTCLDY    26  21  81 SW7       30.11S WCI  18
ALLIANCE       CLEAR     20  16  84 W12       30.11S WCI   8
SIDNEY         CLEAR     23  17  78 W10       30.15S WCI  12
WHITECLAY        N/A     28  22  78 W10         N/A  WCI  18
CRESCENT LAKE    N/A     24  19  80 W9          N/A  WCI  14
LISCO            N/A     25  18  74 W13         N/A  WCI  13
BIG SPRINGS      N/A     26  21  81 W8          N/A  WCI  18
$$

...OBSERVATIONS IN NORTH CENTRAL NEBRASKA...

CITY           SKY/WX    TMP DP  RH WIND       PRES   REMARKS
VALENTINE      CLOUDY    28  25  88 W3        30.06F
THEDFORD       CLOUDY    28  25  86 W8        30.10S WCI  20
AINSWORTH      CLOUDY    24  22  95 W5        30.07F WCI  18
O`NEILL        CLEAR     19  14  84 W5        30.08S WCI  12
ORD            CLEAR     14  10  84 NW5       30.11R WCI   6
BROKEN BOW     PTCLDY    20  16  84 W5        30.11S WCI  13
BROWNLEE         N/A     29  26  88 W5          N/A  WCI  24
SPRINGVIEW       N/A     16  13  86 CALM        N/A
BREWSTER         N/A     26  24  93 W3          N/A
SARGENT          N/A     18  14  85 CALM        N/A
COMSTOCK         N/A     25  20  79 W6          N/A  WCI  18
CHAMBERS         N/A     15   4  61 CALM        N/A
EWING            N/A     16  10  78 W3          N/A
$$

...OBSERVATIONS IN SOUTHWEST NEBRASKA AND FAR NORTHEAST COLORADO...

CITY           SKY/WX    TMP DP  RH WIND       PRES   REMARKS
WRAY           FAIR      21  18  88 W7        30.19S WCI  12
HOLYOKE        FAIR      21  18  86 W8        30.16F WCI  12
IMPERIAL       CLEAR     24  18  77 W12       30.16F WCI  13
OGALLALA       CLEAR     21  19  91 CALM      30.14F
NORTH PLATTE   CLEAR     17  15  92 NW6       30.14S WCI   9
MCCOOK         CLEAR     27  24  89 W12       30.18R WCI  17
LEXINGTON      CLEAR     19  17  89 NW6       30.14S WCI  11
PAXTON           N/A     24  21  87 W3          N/A
BRADY            N/A     23  18  81 CALM        N/A
GOTHENBURG       N/A     28  23  81 W3          N/A
CALLAWAY         N/A     23  20  89 W8          N/A  WCI  14
$$

...NORTH PLATTE AREA...

CITY           SKY/WX    TMP DP  RH WIND       PRES   REMARKS
AIRPORT        CLEAR     17  15  92 NW6       30.14S WCI   9
DOWNTOWN         N/A     25  20  82 CALM        N/A
$$

...SOME WEATHER OBSERVATIONS FROM AROUND THE REGION...

CITY           SKY/WX    TMP DP  RH WIND       PRES   REMARKS
DENVER         PTCLDY    20  12  71 S9        30.17F WCI   9
LARAMIE        CLEAR     18   8  65 W13       30.11S WCI   5
CHEYENNE       CLEAR     14   7  73 NW8       30.11F WCI   3
SCOTTSBLUFF    CLEAR     20  17  88 NW7       30.14F WCI  11
RAPID CITY     PTCLDY    20  14  77 NW10G21   30.04S WCI   9
PIERRE         CLOUDY    25  19  78 W9        30.03F WCI  15
WINNER         CLOUDY    26  17  68 SW6       30.06F WCI  19
SIOUX FALLS    CLEAR     14   6  70 W7        30.04R WCI   4
OMAHA          CLEAR     22   7  52 NW10      30.12R WCI  11
GRAND ISLAND   CLEAR     19  12  74 W8        30.13S WCI   9
KANSAS CITY    CLEAR     27  13  55 NW9       30.11R WCI  18
WICHITA        PTCLDY    31  19  61 N8        30.18R WCI  23
HAYS           MOCLDY    28  18  64 CALM      30.19R
LIBERAL        CLEAR     28  18  64 W10       30.25S WCI  19
GOODLAND       PTCLDY    23  17  78 W8        30.20R WCI  14
$$



USA.gov is the U.S. government's official web portal to all federal, state and local government web resources and services.